Weather in Elanci

Russia / Irkutsk Oblast     52°47′50″N   106°23′57″E
temp.,
°C
wind,
m/s
gust,
m/s
humid.,
%
clouds,
%
prec.,
mm/h
press.,
hPa
HPBL,
m
12 may, wed
wed1223:00+5wnw337788 0.0 101434
02:00+4w337876 0.1 101437
05:00+3w348471 0.1 101344
08:00+6wsw366451 0.3 1012386
11:00+9w585482 0.3 10101388
14:00+9nw695839 1.8 1010979
17:00+7nnw365327 0.1 10111275
20:00+6nnw37497 0.1 1012432
13 may, thu
thu1323:00+3nnw33564 0.0 101432
02:00+1nw456492 0.0 101595
05:000wnw44711 0.0 101658
08:00+3nw58540 0.0 1015667
11:00+5n2446100 0.0 10141567
14:00+5wsw0547100 0.1 10141808
17:00+6n2543100 0.0 10142012
20:00+5nnw595541 0.3 1015612
14 may, fri
fri1423:00+3nw48660 0.0 1016238
02:00+1wnw47742 0.0 1017128
05:00+1nw59710 0.0 1017187
08:00+4nnw35610 0.0 1017453
11:00+7sse13510 0.0 1017885
14:00+8s34410 0.0 10151074
17:00+8ssw35410 0.0 1014418
20:00+6sw12470 0.0 101511
15 may, sat
sat1523:00+3n11525 0.0 101610
02:00+2nne225635 0.0 101510
05:00+2n116137 0.0 101510
08:00+5s125155 0.0 1015190
11:00+9sw36422 0.0 1014946
14:00+11w474689 0.0 10121631
17:00+12wnw683990 0.0 10111135
20:00+9wsw4753100 0.0 1012339
16 may, sun
sun1623:00+7w61376100 0.1 1014760
02:00+7wnw6127264 0.1 1015812
05:00+5wnw4880100 0.0 1016597
08:00+6wnw5106485 0.3 1018788
11:00+7w576789 0.0 1018779
14:00+7wsw577117 0.1 1017631
17:00+9wsw366299 0.0 1014805
20:00+7sw1172100 0.0 101311